Regional Weather Roundup
Issued by NWS Nashville, TN

Home | Current Version | Previous Version | Text Only | Print | Product List | Glossary On
Versions: 1 2 3 4 5 6 7 8 9 10 11 12 13 14 15 16 17 18 19 20 21 22 23 24 25 26 27 28 29 30 31 32 33 34 35 36 37 38 39 40 41 42 43 44 45 46 47 48 49 50
000
ASUS44 KOHX 202215
RWROHX
MIDDLE TENNESSEE HOURLY WEATHER ROUNDUP
NATIONAL WEATHER SERVICE NASHVILLE TN
500 PM CDT SUN APR 20 2014

NOTE: "FAIR" INDICATES FEW OR NO CLOUDS BELOW 12,000 FEET WITH
NO SIGNIFICANT WEATHER AND/OR OBSTRUCTIONS TO VISIBILITY.

* THESE REPORTS ARE NOT UNDER NWS QUALITY CONTROL AND MAY NOT
  REPORT WEATHER SUCH AS PRECIPITATION AND FOG.


TNZ005>011-023>034-057-059-062>066-078-080-202300
...NORTHERN MIDDLE TENNESSEE...

CITY           SKY/WX    TMP DP  RH WIND       PRES   REMARKS
BAXTER*          N/A     81  46  30 W7          N/A
BRENTWOOD*       N/A     82  46  28 E1          N/A
CASTALIAN SPRG   N/A     81  45  28 W1          N/A
CLARKSVILLE    PTSUNNY   78  43  28 E3        30.11F
COLUMBIA       SUNNY     79  54  41 NE3       30.11F
CROSSVILLE     SUNNY     75  34  22 E3        30.16S
GALLATIN         N/A     78  37  22 CALM      30.14F
DICKSON        PTSUNNY   79  37  22 CALM      30.12F
FAIRFIELD GLAD   N/A     75  43  31 CALM        N/A
GOODLETTSVILLE   N/A     79  48  34 CALM        N/A
JOELTON*         N/A     79  46  31 S3          N/A
KINGSTON SPGS*   N/A     81  45  28 SW1         N/A
LAFAYETTE*       N/A     81  45  28 W3          N/A
LIVINGSTON     SUNNY     76  38  25 CALM      30.14F
MONTEREY         N/A     75  43  31 CALM        N/A
MOUNT JULIET*    N/A     79  43  27 CALM        N/A
NASHVILLE      MOSUNNY   79  40  24 E7        30.12F
OLD HICKORY*     N/A     79  46  31 SE1         N/A
PEGRAM*          N/A    N/A N/A N/A S1          N/A
PORTLAND         N/A     75  43  31 N3        30.12F
SMYRNA         MOSUNNY   78  46  32 CALM      30.12F
SPARTA         SUNNY     81  43  26 W3        30.13F
SPRINGFIELD*     N/A     77  48  36 MISG        N/A
WHITE BLUFF*     N/A     79  41  25 W2          N/A
$$
TNZ056-058-060-061-075>077-079-093>097-202300
...SOUTHERN MIDDLE TENNESSEE...

CITY           SKY/WX    TMP DP  RH WIND       PRES   REMARKS
BELLEVUE*        N/A     82  46  28 CALM        N/A
CULLEOKA*        N/A     79  39  24 N1          N/A
EAGLEVILLE*      N/A    N/A N/A N/A S5          N/A
FAYETTEVILLE   SUNNY     76  43  30 NE7       30.14F
HOHENWALD*       N/A     84  41  21 CALM        N/A
LEWISBURG      MOSUNNY   80  46  30 CALM      30.12F
MANCHESTER*      N/A     77  45  31 CALM        N/A
MCMINNVILLE      N/A     77  43  29 CALM      30.14F
MOUNT PLEASANT   N/A     77  46  33 CALM        N/A
MURFREESBORO   MOSUNNY   78  41  26 VRB3      30.12F
SHELBYVILLE    MOSUNNY   79  45  29 CALM      30.15F
SPRING HILL*     N/A     77  46  33 CALM        N/A
TULLAHOMA      SUNNY     75  43  31 W7        30.15S
WINCHESTER     SUNNY     77  45  31 CALM      30.13F
$$


...KEY TO REMARKS...
VSB - VISIBILITY IN MILES
WCI - WIND CHILL INDEX
HX  - HEAT INDEX




USA.gov is the U.S. government's official web portal to all federal, state and local government web resources and services.